Wetterdaten: Woche 10.02.14 - 16.02.14 (KW7)
Datum Zeit Temp. Aussen +5cm Feuchte Auss Luftdruck Regen Sonnenschein Regendauer UV Solar Windben
10.02.2014 00:00 5,4 C 3,6 C 79 % 997,0 hPa 0,0 l/m 0,00 h 0,00 h 0,0 UV-I 0 W/m 9,8 km/h (2 Bft)
10.02.2014 01:00 4,9 C 3,0 C 81 % 997,0 hPa 0,0 l/m 0,00 h 0,00 h 0,0 UV-I 0 W/m 3,2 km/h (1 Bft)
10.02.2014 02:00 4,2 C 1,6 C 84 % 996,6 hPa 0,0 l/m 0,00 h 0,00 h 0,0 UV-I 0 W/m 2,6 km/h (1 Bft)
10.02.2014 03:00 2,9 C 1,0 C 87 % 996,1 hPa 0,0 l/m 0,00 h 0,00 h 0,0 UV-I 0 W/m 9,2 km/h (2 Bft)
10.02.2014 04:00 2,3 C 0,8 C 89 % 995,7 hPa 0,0 l/m 0,00 h 0,00 h 0,0 UV-I 0 W/m 8,7 km/h (2 Bft)
10.02.2014 05:00 2,5 C 1,1 C 90 % 995,3 hPa 0,0 l/m 0,00 h 0,00 h 0,0 UV-I 0 W/m 13,4 km/h (3 Bft)
10.02.2014 06:00 2,7 C 1,2 C 90 % 994,6 hPa 0,0 l/m 0,00 h 0,00 h 0,0 UV-I 0 W/m 11,2 km/h (2 Bft)
10.02.2014 07:00 2,8 C 1,7 C 88 % 994,5 hPa 0,0 l/m 0,00 h 0,00 h 0,0 UV-I 0 W/m 14,1 km/h (3 Bft)
10.02.2014 08:00 3,0 C 2,0 C 87 % 995,0 hPa 0,0 l/m 0,00 h 0,00 h 0,0 UV-I 18 W/m 13,2 km/h (3 Bft)
10.02.2014 09:00 3,7 C 3,3 C 86 % 995,1 hPa 0,0 l/m 0,00 h 0,00 h 0,0 UV-I 67 W/m 3,8 km/h (1 Bft)
10.02.2014 10:00 5,0 C 4,4 C 80 % 994,8 hPa 0,0 l/m 0,00 h 0,00 h 0,0 UV-I 77 W/m 10,0 km/h (2 Bft)
10.02.2014 11:00 5,8 C 5,4 C 76 % 994,4 hPa 0,0 l/m 0,00 h 0,00 h 0,0 UV-I 123 W/m 8,1 km/h (2 Bft)
10.02.2014 12:00 7,2 C 7,1 C 71 % 993,4 hPa 0,0 l/m 0,00 h 0,00 h 0,0 UV-I 172 W/m 8,9 km/h (2 Bft)
10.02.2014 13:00 8,0 C 7,7 C 66 % 992,9 hPa 0,0 l/m 0,13 h 0,00 h 0,0 UV-I 170 W/m 13,8 km/h (3 Bft)
10.02.2014 14:00 7,8 C 7,2 C 63 % 992,6 hPa 0,0 l/m 0,00 h 0,00 h 0,0 UV-I 103 W/m 14,7 km/h (3 Bft)
10.02.2014 15:00 7,6 C 7,0 C 64 % 992,5 hPa 0,0 l/m 0,00 h 0,00 h 0,0 UV-I 97 W/m 12,2 km/h (2 Bft)
10.02.2014 16:00 7,1 C 5,9 C 67 % 992,7 hPa 0,0 l/m 0,00 h 0,00 h 0,0 UV-I 34 W/m 2,6 km/h (1 Bft)
10.02.2014 17:00 6,7 C 4,8 C 68 % 993,2 hPa 0,0 l/m 0,00 h 0,20 h 0,0 UV-I 11 W/m 6,3 km/h (2 Bft)
10.02.2014 18:00 5,9 C 4,1 C 73 % 993,9 hPa 0,0 l/m 0,00 h 0,00 h 0,0 UV-I 0 W/m 5,6 km/h (1 Bft)
10.02.2014 19:00 4,9 C 3,0 C 82 % 994,8 hPa 0,2 l/m 0,00 h 0,77 h 0,0 UV-I 0 W/m 2,7 km/h (1 Bft)
10.02.2014 20:00 4,2 C 2,2 C 88 % 995,3 hPa 0,2 l/m 0,00 h 1,00 h 0,0 UV-I 0 W/m 0,0 km/h (0 Bft)
10.02.2014 21:00 3,8 C 2,2 C 91 % 995,8 hPa 0,2 l/m 0,00 h 0,73 h 0,0 UV-I 0 W/m 0,0 km/h (0 Bft)
10.02.2014 22:00 3,6 C 2,2 C 93 % 996,4 hPa 0,0 l/m 0,00 h 0,00 h 0,0 UV-I 0 W/m 0,4 km/h (0 Bft)
10.02.2014 23:00 3,6 C 2,1 C 94 % 997,1 hPa 0,0 l/m 0,00 h 0,00 h 0,0 UV-I 0 W/m 0,9 km/h (0 Bft)
11.02.2014 00:00 3,4 C 2,0 C 95 % 997,6 hPa 0,0 l/m 0,00 h 0,03 h 0,0 UV-I 0 W/m 3,8 km/h (1 Bft)
11.02.2014 01:00 3,5 C 2,2 C 96 % 998,0 hPa 0,0 l/m 0,00 h 0,00 h 0,0 UV-I 0 W/m 5,0 km/h (1 Bft)
11.02.2014 02:00 3,9 C 2,7 C 96 % 998,5 hPa 0,0 l/m 0,00 h 0,00 h 0,0 UV-I 0 W/m 8,4 km/h (2 Bft)
11.02.2014 03:00 4,6 C 3,3 C 96 % 998,9 hPa 0,0 l/m 0,00 h 0,07 h 0,0 UV-I 0 W/m 9,6 km/h (2 Bft)
11.02.2014 04:00 5,0 C 3,3 C 94 % 999,5 hPa 0,0 l/m 0,00 h 0,00 h 0,0 UV-I 0 W/m 11,7 km/h (2 Bft)
11.02.2014 05:00 5,2 C 3,5 C 91 % 1000,2 hPa 0,0 l/m 0,00 h 0,00 h 0,0 UV-I 0 W/m 11,7 km/h (2 Bft)
11.02.2014 06:00 5,3 C 3,7 C 89 % 1000,5 hPa 0,0 l/m 0,00 h 0,00 h 0,0 UV-I 0 W/m 16,0 km/h (3 Bft)
11.02.2014 07:00 5,1 C 3,3 C 86 % 1001,4 hPa 0,0 l/m 0,00 h 0,07 h 0,0 UV-I 0 W/m 17,9 km/h (3 Bft)
11.02.2014 08:00 5,0 C 3,3 C 85 % 1002,0 hPa 0,0 l/m 0,00 h 0,00 h 0,0 UV-I 15 W/m 14,7 km/h (3 Bft)
11.02.2014 09:00 5,2 C 3,9 C 84 % 1002,3 hPa 0,0 l/m 0,47 h 0,00 h 0,0 UV-I 110 W/m 17,7 km/h (3 Bft)
11.02.2014 10:00 6,1 C 5,0 C 83 % 1002,5 hPa 0,0 l/m 0,47 h 0,00 h 0,0 UV-I 171 W/m 15,7 km/h (3 Bft)
11.02.2014 11:00 7,1 C 5,9 C 80 % 1002,2 hPa 0,0 l/m 0,80 h 0,00 h 0,0 UV-I 317 W/m 16,8 km/h (3 Bft)
11.02.2014 12:00 8,2 C 7,5 C 73 % 1001,7 hPa 0,0 l/m 0,63 h 0,00 h 0,0 UV-I 351 W/m 20,8 km/h (4 Bft)
11.02.2014 13:00 8,8 C 7,6 C 65 % 1001,1 hPa 0,0 l/m 0,93 h 0,00 h 0,0 UV-I 369 W/m 20,4 km/h (4 Bft)
11.02.2014 14:00 9,1 C 7,8 C 60 % 1000,5 hPa 0,0 l/m 0,70 h 0,00 h 0,0 UV-I 265 W/m 20,4 km/h (4 Bft)
11.02.2014 15:00 8,3 C 7,0 C 63 % 1000,4 hPa 0,0 l/m 0,00 h 0,00 h 0,0 UV-I 69 W/m 15,5 km/h (3 Bft)
11.02.2014 16:00 8,1 C 6,7 C 63 % 1000,3 hPa 0,0 l/m 0,00 h 0,00 h 0,0 UV-I 32 W/m 13,8 km/h (3 Bft)
11.02.2014 17:00 7,9 C 6,2 C 63 % 1000,1 hPa 0,0 l/m 0,00 h 0,00 h 0,0 UV-I 11 W/m 17,2 km/h (3 Bft)
11.02.2014 18:00 7,7 C 6,1 C 66 % 1000,4 hPa 0,0 l/m 0,00 h 0,00 h 0,0 UV-I 0 W/m 19,8 km/h (4 Bft)
11.02.2014 19:00 7,2 C 5,1 C 73 % 1000,7 hPa 0,2 l/m 0,00 h 0,60 h 0,0 UV-I 0 W/m 20,7 km/h (4 Bft)
11.02.2014 20:00 5,8 C 3,3 C 86 % 1000,8 hPa 0,4 l/m 0,00 h 1,00 h 0,0 UV-I 0 W/m 15,2 km/h (3 Bft)
11.02.2014 21:00 5,5 C 3,4 C 89 % 1001,0 hPa 0,2 l/m 0,00 h 0,63 h 0,0 UV-I 0 W/m 8,7 km/h (2 Bft)
11.02.2014 22:00 5,5 C 3,6 C 89 % 1001,6 hPa 0,0 l/m 0,00 h 0,77 h 0,0 UV-I 0 W/m 17,1 km/h (3 Bft)
11.02.2014 23:00 4,9 C 3,3 C 91 % 1002,1 hPa 0,0 l/m 0,00 h 0,80 h 0,0 UV-I 0 W/m 16,1 km/h (3 Bft)
12.02.2014 00:00 4,8 C 3,3 C 92 % 1002,8 hPa 0,0 l/m 0,00 h 0,13 h 0,0 UV-I 0 W/m 11,7 km/h (2 Bft)
12.02.2014 01:00 4,8 C 3,0 C 91 % 1003,4 hPa 0,0 l/m 0,00 h 0,00 h 0,0 UV-I 0 W/m 9,9 km/h (2 Bft)
12.02.2014 02:00 4,8 C 3,3 C 91 % 1004,1 hPa 0,0 l/m 0,00 h 0,00 h 0,0 UV-I 0 W/m 8,7 km/h (2 Bft)
12.02.2014 03:00 4,7 C 2,9 C 90 % 1004,6 hPa 0,0 l/m 0,00 h 0,00 h 0,0 UV-I 0 W/m 8,5 km/h (2 Bft)
12.02.2014 04:00 3,9 C 2,2 C 90 % 1005,0 hPa 0,0 l/m 0,00 h 0,00 h 0,0 UV-I 0 W/m 9,5 km/h (2 Bft)
12.02.2014 05:00 3,5 C 1,7 C 91 % 1005,6 hPa 0,0 l/m 0,00 h 0,00 h 0,0 UV-I 0 W/m 8,7 km/h (2 Bft)
12.02.2014 06:00 3,4 C 1,7 C 91 % 1006,4 hPa 0,0 l/m 0,00 h 0,00 h 0,0 UV-I 0 W/m 11,0 km/h (2 Bft)
12.02.2014 07:00 3,4 C 1,7 C 91 % 1006,9 hPa 0,0 l/m 0,00 h 0,00 h 0,0 UV-I 6 W/m 10,2 km/h (2 Bft)
12.02.2014 08:00 3,4 C 1,9 C 91 % 1007,4 hPa 0,0 l/m 0,03 h 0,00 h 0,0 UV-I 26 W/m 8,2 km/h (2 Bft)
12.02.2014 09:00 4,3 C 3,0 C 88 % 1007,8 hPa 0,0 l/m 0,30 h 0,00 h 0,0 UV-I 100 W/m 13,7 km/h (3 Bft)
12.02.2014 10:00 5,7 C 4,3 C 84 % 1007,8 hPa 0,2 l/m 0,83 h 0,00 h 0,0 UV-I 253 W/m 18,9 km/h (3 Bft)
12.02.2014 11:00 6,9 C 5,5 C 79 % 1007,7 hPa 0,0 l/m 0,95 h 0,00 h 0,0 UV-I 349 W/m 16,0 km/h (3 Bft)
12.02.2014 12:00 8,1 C 6,7 C 72 % 1006,9 hPa 0,0 l/m 0,97 h 0,00 h 0,5 UV-I 390 W/m 18,3 km/h (3 Bft)
12.02.2014 13:00 9,3 C 7,6 C 64 % 1005,7 hPa 0,0 l/m 1,00 h 0,00 h 0,5 UV-I 385 W/m 21,4 km/h (4 Bft)
12.02.2014 14:00 9,7 C 8,0 C 60 % 1004,6 hPa 0,0 l/m 0,97 h 0,00 h 0,0 UV-I 320 W/m 23,3 km/h (4 Bft)
12.02.2014 15:00 9,6 C 8,0 C 61 % 1003,3 hPa 0,0 l/m 1,00 h 0,00 h 0,0 UV-I 232 W/m 22,3 km/h (4 Bft)
12.02.2014 16:00 8,2 C 6,6 C 65 % 1001,9 hPa 0,0 l/m 0,10 h 0,00 h 0,0 UV-I 69 W/m 27,3 km/h (4 Bft)
12.02.2014 17:00 7,1 C 5,4 C 68 % 1000,8 hPa 0,0 l/m 0,00 h 0,00 h 0,0 UV-I 16 W/m 29,6 km/h (5 Bft)
12.02.2014 18:00 6,7 C 5,0 C 71 % 1000,0 hPa 0,0 l/m 0,00 h 0,00 h 0,0 UV-I 0 W/m 29,2 km/h (5 Bft)
12.02.2014 19:00 6,7 C 5,0 C 73 % 999,1 hPa 0,0 l/m 0,00 h 0,00 h 0,0 UV-I 0 W/m 28,5 km/h (4 Bft)
12.02.2014 20:00 7,0 C 5,3 C 74 % 998,2 hPa 0,0 l/m 0,00 h 0,30 h 0,0 UV-I 0 W/m 29,1 km/h (5 Bft)
12.02.2014 21:00 6,0 C 3,4 C 84 % 997,6 hPa 1,0 l/m 0,00 h 0,97 h 0,0 UV-I 0 W/m 22,3 km/h (4 Bft)
12.02.2014 22:00 6,0 C 3,3 C 85 % 996,9 hPa 0,0 l/m 0,00 h 0,27 h 0,0 UV-I 0 W/m 23,8 km/h (4 Bft)
12.02.2014 23:00 6,5 C 3,9 C 81 % 996,7 hPa 0,0 l/m 0,00 h 0,00 h 0,0 UV-I 0 W/m 23,2 km/h (4 Bft)
13.02.2014 00:00 6,5 C 3,9 C 82 % 996,5 hPa 0,0 l/m 0,00 h 0,00 h 0,0 UV-I 0 W/m 26,4 km/h (4 Bft)
13.02.2014 01:00 6,3 C 3,9 C 83 % 996,7 hPa 0,0 l/m 0,00 h 0,17 h 0,0 UV-I 0 W/m 18,3 km/h (3 Bft)
13.02.2014 02:00 6,5 C 4,4 C 85 % 996,7 hPa 0,0 l/m 0,00 h 0,00 h 0,0 UV-I 0 W/m 14,8 km/h (3 Bft)
13.02.2014 03:00 6,3 C 4,4 C 82 % 996,8 hPa 0,0 l/m 0,00 h 0,00 h 0,0 UV-I 0 W/m 16,5 km/h (3 Bft)
13.02.2014 04:00 6,1 C 4,4 C 80 % 997,0 hPa 0,0 l/m 0,00 h 0,00 h 0,0 UV-I 0 W/m 17,1 km/h (3 Bft)
13.02.2014 05:00 6,1 C 4,4 C 83 % 996,6 hPa 0,0 l/m 0,00 h 0,00 h 0,0 UV-I 0 W/m 16,7 km/h (3 Bft)
13.02.2014 06:00 6,1 C 4,3 C 83 % 996,5 hPa 0,0 l/m 0,00 h 0,00 h 0,0 UV-I 0 W/m 19,0 km/h (3 Bft)
13.02.2014 07:00 5,8 C 4,1 C 83 % 996,3 hPa 0,0 l/m 0,00 h 0,00 h 0,0 UV-I 8 W/m 15,9 km/h (3 Bft)
13.02.2014 08:00 6,2 C 4,5 C 81 % 995,7 hPa 0,0 l/m 0,07 h 0,00 h 0,0 UV-I 25 W/m 16,0 km/h (3 Bft)
13.02.2014 09:00 6,2 C 5,1 C 83 % 995,2 hPa 0,0 l/m 0,00 h 0,00 h 0,0 UV-I 63 W/m 8,3 km/h (2 Bft)
13.02.2014 10:00 6,6 C 5,9 C 83 % 994,1 hPa 0,0 l/m 0,00 h 0,00 h 0,0 UV-I 90 W/m 9,6 km/h (2 Bft)
13.02.2014 11:00 7,1 C 6,4 C 82 % 993,0 hPa 0,0 l/m 0,00 h 0,13 h 0,0 UV-I 91 W/m 8,9 km/h (2 Bft)
13.02.2014 12:00 6,3 C 4,4 C 87 % 992,0 hPa 1,2 l/m 0,00 h 1,00 h 0,0 UV-I 44 W/m 3,7 km/h (1 Bft)
13.02.2014 13:00 5,6 C 4,4 C 93 % 991,0 hPa 1,6 l/m 0,00 h 1,00 h 0,0 UV-I 49 W/m 6,3 km/h (2 Bft)
13.02.2014 14:00 5,1 C 3,9 C 95 % 990,7 hPa 1,4 l/m 0,00 h 1,00 h 0,0 UV-I 31 W/m 3,4 km/h (1 Bft)
13.02.2014 15:00 5,0 C 4,2 C 96 % 991,0 hPa 1,0 l/m 0,00 h 0,90 h 0,0 UV-I 65 W/m 0,5 km/h (0 Bft)
13.02.2014 16:00 5,2 C 4,3 C 96 % 991,6 hPa 0,0 l/m 0,00 h 0,60 h 0,0 UV-I 36 W/m 0,4 km/h (0 Bft)
13.02.2014 17:00 5,0 C 3,9 C 97 % 992,4 hPa 0,0 l/m 0,00 h 0,00 h 0,0 UV-I 9 W/m 2,0 km/h (1 Bft)
13.02.2014 18:00 4,5 C 3,3 C 97 % 993,9 hPa 0,0 l/m 0,00 h 0,10 h 0,0 UV-I 0 W/m 3,7 km/h (1 Bft)
13.02.2014 19:00 4,3 C 3,2 C 97 % 995,5 hPa 0,0 l/m 0,00 h 0,00 h 0,0 UV-I 0 W/m 5,6 km/h (1 Bft)
13.02.2014 20:00 4,5 C 3,2 C 96 % 997,0 hPa 0,0 l/m 0,00 h 0,00 h 0,0 UV-I 0 W/m 10,5 km/h (2 Bft)
13.02.2014 21:00 4,3 C 2,6 C 95 % 998,4 hPa 1,2 l/m 0,00 h 0,53 h 0,0 UV-I 0 W/m 13,1 km/h (3 Bft)
13.02.2014 22:00 2,9 C 1,2 C 94 % 999,5 hPa 0,2 l/m 0,00 h 0,03 h 0,0 UV-I 0 W/m 6,5 km/h (2 Bft)
13.02.2014 23:00 3,4 C 1,6 C 93 % 1000,6 hPa 0,0 l/m 0,00 h 0,00 h 0,0 UV-I 0 W/m 10,3 km/h (2 Bft)
14.02.2014 00:00 3,4 C 1,7 C 91 % 1001,7 hPa 0,2 l/m 0,00 h 0,00 h 0,0 UV-I 0 W/m 11,2 km/h (2 Bft)
14.02.2014 01:00 3,3 C 1,7 C 90 % 1002,6 hPa 0,0 l/m 0,00 h 0,00 h 0,0 UV-I 0 W/m 10,7 km/h (2 Bft)
14.02.2014 02:00 3,3 C 1,7 C 91 % 1003,6 hPa 0,0 l/m 0,00 h 0,00 h 0,0 UV-I 0 W/m 14,6 km/h (3 Bft)
14.02.2014 03:00 3,3 C 1,7 C 90 % 1004,1 hPa 0,0 l/m 0,00 h 0,00 h 0,0 UV-I 0 W/m 14,0 km/h (3 Bft)
14.02.2014 04:00 3,1 C 1,6 C 89 % 1004,4 hPa 0,0 l/m 0,00 h 0,00 h 0,0 UV-I 0 W/m 12,3 km/h (3 Bft)
14.02.2014 05:00 2,8 C 1,0 C 90 % 1004,7 hPa 0,0 l/m 0,00 h 0,00 h 0,0 UV-I 0 W/m 9,3 km/h (2 Bft)
14.02.2014 06:00 2,2 C 0,3 C 91 % 1005,1 hPa 0,0 l/m 0,00 h 0,00 h 0,0 UV-I 0 W/m 4,9 km/h (1 Bft)
14.02.2014 07:00 1,8 C -0,0 C 93 % 1005,6 hPa 0,0 l/m 0,00 h 0,00 h 0,0 UV-I 8 W/m 4,3 km/h (1 Bft)
14.02.2014 08:00 2,0 C 0,4 C 93 % 1006,1 hPa 0,0 l/m 0,17 h 0,00 h 0,0 UV-I 35 W/m 3,9 km/h (1 Bft)
14.02.2014 09:00 3,5 C 2,3 C 90 % 1006,3 hPa 0,0 l/m 0,57 h 0,00 h 0,0 UV-I 130 W/m 9,4 km/h (2 Bft)
14.02.2014 10:00 5,3 C 4,4 C 85 % 1006,3 hPa 0,0 l/m 1,00 h 0,00 h 0,0 UV-I 237 W/m 17,1 km/h (3 Bft)
14.02.2014 11:00 6,7 C 5,7 C 79 % 1006,2 hPa 0,0 l/m 0,33 h 0,00 h 0,0 UV-I 225 W/m 18,4 km/h (3 Bft)
14.02.2014 12:00 7,2 C 6,9 C 77 % 1005,3 hPa 0,0 l/m 0,27 h 0,00 h 0,0 UV-I 206 W/m 21,8 km/h (4 Bft)
14.02.2014 13:00 7,7 C 7,3 C 76 % 1004,1 hPa 0,0 l/m 0,30 h 0,00 h 0,0 UV-I 226 W/m 26,9 km/h (4 Bft)
14.02.2014 14:00 7,6 C 6,9 C 77 % 1003,2 hPa 0,0 l/m 0,00 h 0,00 h 0,0 UV-I 126 W/m 27,6 km/h (4 Bft)
14.02.2014 15:00 7,6 C 6,6 C 78 % 1002,4 hPa 0,0 l/m 0,00 h 0,40 h 0,0 UV-I 80 W/m 25,2 km/h (4 Bft)
14.02.2014 16:00 6,4 C 4,3 C 87 % 1000,8 hPa 1,0 l/m 0,00 h 1,00 h 0,0 UV-I 16 W/m 28,0 km/h (4 Bft)
14.02.2014 17:00 5,5 C 3,9 C 93 % 999,1 hPa 2,0 l/m 0,00 h 1,00 h 0,0 UV-I 8 W/m 27,2 km/h (4 Bft)
14.02.2014 18:00 5,4 C 3,9 C 95 % 998,7 hPa 1,0 l/m 0,00 h 1,00 h 0,0 UV-I 0 W/m 28,0 km/h (4 Bft)
14.02.2014 19:00 5,4 C 3,9 C 96 % 997,5 hPa 1,8 l/m 0,00 h 1,00 h 0,0 UV-I 0 W/m 35,8 km/h (5 Bft)
14.02.2014 20:00 5,4 C 3,9 C 96 % 995,9 hPa 0,0 l/m 0,00 h 0,17 h 0,0 UV-I 0 W/m 33,5 km/h (5 Bft)
14.02.2014 21:00 5,4 C 3,9 C 96 % 994,5 hPa 0,0 l/m 0,00 h 0,00 h 0,0 UV-I 0 W/m 32,4 km/h (5 Bft)
14.02.2014 22:00 5,9 C 4,4 C 95 % 992,9 hPa 0,0 l/m 0,00 h 0,00 h 0,0 UV-I 0 W/m 36,7 km/h (5 Bft)
14.02.2014 23:00 6,5 C 4,8 C 92 % 992,4 hPa 0,0 l/m 0,00 h 0,00 h 0,0 UV-I 0 W/m 31,6 km/h (5 Bft)
15.02.2014 00:00 7,1 C 5,4 C 91 % 992,1 hPa 0,0 l/m 0,00 h 0,00 h 0,0 UV-I 0 W/m 26,7 km/h (4 Bft)
15.02.2014 01:00 7,8 C 5,9 C 90 % 991,6 hPa 0,0 l/m 0,00 h 0,00 h 0,0 UV-I 0 W/m 26,6 km/h (4 Bft)
15.02.2014 02:00 8,9 C 7,2 C 88 % 990,7 hPa 0,0 l/m 0,00 h 0,00 h 0,0 UV-I 0 W/m 22,7 km/h (4 Bft)
15.02.2014 03:00 12,1 C 10,0 C 79 % 991,6 hPa 0,0 l/m 0,00 h 0,00 h 0,0 UV-I 0 W/m 26,8 km/h (4 Bft)
15.02.2014 04:00 12,3 C 9,9 C 76 % 992,0 hPa 0,0 l/m 0,00 h 0,00 h 0,0 UV-I 0 W/m 21,0 km/h (4 Bft)
15.02.2014 05:00 11,7 C 9,1 C 69 % 992,5 hPa 0,0 l/m 0,00 h 0,00 h 0,0 UV-I 0 W/m 22,2 km/h (4 Bft)
15.02.2014 06:00 11,3 C 9,0 C 71 % 993,2 hPa 0,2 l/m 0,00 h 0,00 h 0,0 UV-I 0 W/m 24,5 km/h (4 Bft)
15.02.2014 07:00 10,9 C 8,8 C 73 % 993,6 hPa 0,0 l/m 0,00 h 0,07 h 0,0 UV-I 5 W/m 26,7 km/h (4 Bft)
15.02.2014 08:00 10,9 C 8,9 C 73 % 994,1 hPa 0,0 l/m 0,00 h 0,00 h 0,0 UV-I 16 W/m 25,7 km/h (4 Bft)
15.02.2014 09:00 10,8 C 9,1 C 73 % 994,8 hPa 0,0 l/m 0,33 h 0,00 h 0,0 UV-I 100 W/m 27,9 km/h (4 Bft)
15.02.2014 10:00 11,4 C 9,7 C 72 % 995,5 hPa 0,0 l/m 0,70 h 0,00 h 0,0 UV-I 228 W/m 32,9 km/h (5 Bft)
15.02.2014 11:00 12,1 C 10,7 C 69 % 995,8 hPa 0,0 l/m 0,77 h 0,00 h 0,0 UV-I 357 W/m 32,4 km/h (5 Bft)
15.02.2014 12:00 12,3 C 11,1 C 65 % 996,3 hPa 0,0 l/m 0,73 h 0,00 h 0,5 UV-I 329 W/m 32,6 km/h (5 Bft)
15.02.2014 13:00 12,4 C 11,2 C 64 % 996,4 hPa 0,0 l/m 0,83 h 0,00 h 0,0 UV-I 271 W/m 31,5 km/h (5 Bft)
15.02.2014 14:00 12,1 C 11,0 C 63 % 996,7 hPa 0,0 l/m 0,10 h 0,00 h 0,0 UV-I 186 W/m 29,7 km/h (5 Bft)
15.02.2014 15:00 11,8 C 10,5 C 62 % 997,0 hPa 0,0 l/m 0,07 h 0,00 h 0,0 UV-I 142 W/m 27,8 km/h (4 Bft)
15.02.2014 16:00 11,1 C 9,5 C 63 % 997,4 hPa 0,0 l/m 0,00 h 0,00 h 0,0 UV-I 67 W/m 25,1 km/h (4 Bft)
15.02.2014 17:00 10,5 C 8,7 C 66 % 997,7 hPa 0,0 l/m 0,00 h 0,00 h 0,0 UV-I 15 W/m 22,6 km/h (4 Bft)
15.02.2014 18:00 10,2 C 8,3 C 69 % 998,4 hPa 0,0 l/m 0,00 h 0,00 h 0,0 UV-I 0 W/m 21,6 km/h (4 Bft)
15.02.2014 19:00 9,9 C 8,1 C 71 % 999,2 hPa 0,0 l/m 0,00 h 0,00 h 0,0 UV-I 0 W/m 22,1 km/h (4 Bft)
15.02.2014 20:00 9,6 C 7,8 C 72 % 999,5 hPa 0,0 l/m 0,00 h 0,07 h 0,0 UV-I 0 W/m 24,3 km/h (4 Bft)
15.02.2014 21:00 9,4 C 7,7 C 72 % 1000,0 hPa 0,0 l/m 0,00 h 0,00 h 0,0 UV-I 0 W/m 24,7 km/h (4 Bft)
15.02.2014 22:00 9,1 C 7,3 C 72 % 1000,5 hPa 0,0 l/m 0,00 h 0,00 h 0,0 UV-I 0 W/m 29,5 km/h (5 Bft)
15.02.2014 23:00 8,3 C 6,7 C 75 % 1001,3 hPa 0,0 l/m 0,00 h 0,00 h 0,0 UV-I 0 W/m 22,0 km/h (4 Bft)
16.02.2014 00:00 8,1 C 5,7 C 79 % 1002,2 hPa 0,4 l/m 0,00 h 0,80 h 0,0 UV-I 0 W/m 25,3 km/h (4 Bft)
16.02.2014 01:00 7,4 C 5,0 C 84 % 1002,6 hPa 0,0 l/m 0,00 h 0,17 h 0,0 UV-I 0 W/m 23,9 km/h (4 Bft)
16.02.2014 02:00 7,3 C 5,6 C 84 % 1003,0 hPa 0,0 l/m 0,00 h 0,00 h 0,0 UV-I 0 W/m 20,8 km/h (4 Bft)
16.02.2014 03:00 7,1 C 4,9 C 85 % 1003,6 hPa 0,2 l/m 0,00 h 0,27 h 0,0 UV-I 0 W/m 20,6 km/h (4 Bft)
16.02.2014 04:00 6,5 C 4,4 C 89 % 1003,9 hPa 0,0 l/m 0,00 h 0,43 h 0,0 UV-I 0 W/m 16,6 km/h (3 Bft)
16.02.2014 05:00 6,4 C 4,6 C 87 % 1004,4 hPa 0,0 l/m 0,00 h 0,07 h 0,0 UV-I 0 W/m 14,9 km/h (3 Bft)
16.02.2014 06:00 6,8 C 5,5 C 86 % 1005,2 hPa 0,0 l/m 0,00 h 0,00 h 0,0 UV-I 0 W/m 15,8 km/h (3 Bft)
16.02.2014 07:00 6,8 C 5,3 C 86 % 1005,9 hPa 0,0 l/m 0,00 h 0,00 h 0,0 UV-I 6 W/m 12,7 km/h (3 Bft)
16.02.2014 08:00 6,7 C 5,3 C 86 % 1006,7 hPa 0,0 l/m 0,23 h 0,00 h 0,0 UV-I 37 W/m 15,9 km/h (3 Bft)
16.02.2014 09:00 7,1 C 6,0 C 83 % 1007,5 hPa 0,0 l/m 0,47 h 0,00 h 0,0 UV-I 129 W/m 17,6 km/h (3 Bft)
16.02.2014 10:00 7,9 C 7,2 C 81 % 1008,0 hPa 0,0 l/m 0,20 h 0,00 h 0,0 UV-I 177 W/m 19,5 km/h (3 Bft)
16.02.2014 11:00 8,7 C 7,8 C 75 % 1008,6 hPa 0,0 l/m 0,57 h 0,00 h 0,0 UV-I 299 W/m 19,0 km/h (3 Bft)
16.02.2014 12:00 9,6 C 9,0 C 72 % 1008,9 hPa 0,0 l/m 0,77 h 0,00 h 0,5 UV-I 406 W/m 21,6 km/h (4 Bft)
16.02.2014 13:00 10,0 C 9,3 C 68 % 1008,9 hPa 0,0 l/m 0,70 h 0,00 h 0,5 UV-I 408 W/m 22,0 km/h (4 Bft)
16.02.2014 14:00 10,2 C 9,3 C 64 % 1009,0 hPa 0,0 l/m 0,80 h 0,00 h 0,0 UV-I 323 W/m 19,5 km/h (3 Bft)
16.02.2014 15:00 10,1 C 8,9 C 64 % 1009,1 hPa 0,0 l/m 0,87 h 0,00 h 0,0 UV-I 250 W/m 17,1 km/h (3 Bft)
16.02.2014 16:00 9,0 C 7,4 C 71 % 1009,2 hPa 0,0 l/m 0,47 h 0,00 h 0,0 UV-I 93 W/m 11,6 km/h (2 Bft)
16.02.2014 17:00 8,0 C 6,2 C 77 % 1009,3 hPa 0,0 l/m 0,00 h 0,03 h 0,0 UV-I 18 W/m 6,6 km/h (2 Bft)
16.02.2014 18:00 7,1 C 5,1 C 78 % 1009,7 hPa 0,0 l/m 0,00 h 0,00 h 0,0 UV-I 0 W/m 2,3 km/h (1 Bft)
16.02.2014 19:00 6,3 C 4,0 C 81 % 1010,3 hPa 0,0 l/m 0,00 h 0,00 h 0,0 UV-I 0 W/m 1,7 km/h (1 Bft)
16.02.2014 20:00 5,4 C 3,0 C 86 % 1010,6 hPa 0,0 l/m 0,00 h 0,00 h 0,0 UV-I 0 W/m 0,3 km/h (0 Bft)
16.02.2014 21:00 5,5 C 3,4 C 88 % 1010,8 hPa 0,0 l/m 0,00 h 0,00 h 0,0 UV-I 0 W/m 0,1 km/h (0 Bft)
16.02.2014 22:00 5,3 C 3,2 C 89 % 1011,0 hPa 0,0 l/m 0,00 h 0,00 h 0,0 UV-I 0 W/m 1,9 km/h (1 Bft)
16.02.2014 23:00 5,3 C 3,7 C 89 % 1011,2 hPa 0,0 l/m 0,00 h 0,00 h 0,0 UV-I 0 W/m 0,7 km/h (0 Bft)
Min-Datum _ 14.02.14 14.02.14 12.02.14 15.02.14 - - - - - 10.02.14
_ Min-Zeit 07:06 07:20 15:02 02:10 - - - - - 00:28
Minimum _ 1,7 C -0,6 C 57 % 990,3 hPa - - - - - 0,0 km/h (0 Bft)
Max-Datum _ 15.02.14 15.02.14 13.02.14 16.02.14 14.02.14 10.02.14 10.02.14 12.02.14 16.02.14 15.02.14
_ Max-Zeit 12:56 12:52 16:52 23:00 17:02 13:22 17:22 12:56 13:38 09:04
Maximum _ 12,7 C 11,7 C 97 % 1011,2 hPa 2,0 l/m 0,03 h 0,03 h 0,5 UV-I 575 W/m 56,6 km/h
S (7 Bft)
Durchschnitt _ 6,5 C 4,9 C 82 % 999,9 hPa #16,0 l/m #21:35 h #20:20 h 0,5 UV-I 139 W/m 15,8 km/h (3 Bft)
© 2014 W. Hausmann